STARLINK-35049

Last updated on Tue Sep 16 2025 00:02:08 GMT+0000 (Coordinated Universal Time)

1 65444U 25194L 25258.02094409 .00498821 00000+0 25255-2 0 9996 2 65444 97.5976 109.3498 0007420 313.0181 47.0463 15.80206149 3094
UTC large
Height (km)
Speed (km/s)
/
Latitude / Longitude
Inclination (degrees)
Orbital Period (minutes)
Azimuth
Elevation
Range (km)
Doppler Factor

Next 0 passes for location: London (51.5072 / 0.1276)

Sorry there are no passes over London.